Location: ?????
(38.2579°N, 22.9711°E)
Time: 14:22:30
(UTC+00:00)

Cosmos 1726 Rocket - Pass Details

Date: 13 December 2025
Orbit: 553 x 663 km, 82.5° (Epoch: 17 January)

Event Time Altitude Azimuth Distance (km) Brightness Sun altitude
Rises 15:28:39 0° 169° (S) 2,982 7.3 -4.3°
Reaches altitude 10° 15:30:59 10° 162° (SSE) 2,075 6.4 -4.8°
Maximum altitude 15:35:21 42° 92° (E) 935 4.1 -5.5°
Drops below altitude 10° 15:39:42 10° 22° (NNE) 2,066 5.8 -6.3°
Sets 15:42:01 0° 15° (NNE) 2,969 6.7 -6.7°
